Flag for Austria Weather past 2 weeks in Mattersburg, Burgenland, Austria

Now
62 °F

Passing clouds.


Feels Like: 62 °F
Forecast: 55 / 64 °F
Wind: 2 mph from West

Location: Eisenstadt

Current Time: Sep 30, 2014 at 6:05:15 PM

Latest Report: Sep 30, 2014 at 5:00 PM


Visibility: 9 mi

Pressure: 30.25 "Hg

Humidity: 83%

Dew point: 57 °F

Location of MattersburgLocation

Historic Weather in Mattersburg — Graph

°F

Mattersburg temperature yesterday

Maximum temperature yesterday: 71 °F (at 4:00 PM)
Minimum temperature yesterday: 50 °F (at 7:00 AM)
Average temperature yesterday: 58 °F

Past Weeks' High & Low Weather Summary

 TemperatureHumidityPressure
High77 °F (Sep 21, 2:00 PM)98% (Sep 17, 7:00 AM)30.39 "Hg (Sep 17, 7:00 AM)
Low42 °F (Sep 24, 7:00 AM)49% (Sep 21, 2:00 PM)29.79 "Hg (Sep 22, 3:00 AM)
Average59 °F81%30.08 "Hg
* Reported Sep 15 4:00 PM — Sep 30 4:00 PM, Mattersburg, Weather by CustomWeather, © 2014

Note: Actual official high and low records may vary slightly from our data, if they occured in-between our weather recording intervals... More about our weather records

Advertising

Mattersburg weather history for previous 24 hours

 ConditionsComfort  
Time TempWeatherWind HumidityBarometerVisibility
4:00 PM
Sep 30
62 °FMild.1 mph82%30.26 "HgN/A
3:00 PM62 °FCool.1 mph83%30.27 "HgN/A
2:00 PM61 °FOvercast.2 mph84%30.29 "Hg6 mi
1:00 PM59 °FCool.1 mph87%30.29 "HgN/A
12:00 PM58 °FCool.1 mph89%30.30 "HgN/A
11:00 AM58 °FCool.1 mph89%30.30 "HgN/A
10:00 AM56 °FCool.3 mph93%30.31 "HgN/A
9:00 AM54 °FCool.3 mph95%30.30 "HgN/A
8:00 AM54 °FFog.3 mph95%30.30 "Hg2 mi
7:00 AM54 °FFog.2 mph95%30.28 "Hg2 mi
6:00 AM54 °FPassing clouds.3 mph95%30.28 "Hg6 mi
5:00 AM54 °FOvercast.3 mph94%30.28 "Hg6 mi
4:00 AM54 °FOvercast.1 mph94%30.28 "Hg6 mi
3:00 AM53 °FCool.1 mph97%30.27 "HgN/A
2:00 AM54 °FClear.3 mph96%30.27 "Hg9 mi
1:00 AM54 °FCool.1 mph95%30.26 "HgN/A
12:00 AM55 °FCool.3 mph95%30.26 "HgN/A
11:00 PM
Sep 29
55 °FClear.3 mph95%30.27 "Hg9 mi
10:00 PM56 °FCool.2 mph94%30.27 "HgN/A
9:00 PM58 °FCool.2 mph91%30.27 "HgN/A
8:00 PM60 °FClear.2 mph86%30.27 "Hg9 mi
7:00 PM64 °FPassing clouds.2 mph78%30.26 "Hg9 mi
6:00 PM68 °FMild.3 mph68%30.25 "HgN/A
Weather by CustomWeather, © 2014

See weather overviewHow to use our weather pages